Language: 


Des rapports , des résumés tant et plus, au choix de chacun....


Données statistiques de la station
Quotidien Rapport Février 9, 2017 Unités:  Anglais    Métrique   les deux
« Précédent Jour
Suivant Jour »
Quotidien Hebdomadaire Mensuel Annuel Actuel
  Haut: Bas: Moyen:
Température: 37.2 °F 33.6 °F 35.8 °F
Pt de rosée: 36.9 °F 32.7 °F 35.2 °F
Humidité: 98 % 96 % 98 %
Vitesse du vent: 8.5 mph 0.9 mph 5.5 mph
Rafales: 10.3 mph - -
Vent:- - ENE
Pression: 30.3 in 30.2 in -
Précipitation: 0 in    
Historical Graphs
 
 
Données statistiques pour Février 9, 2017
Heure Température Point de rosée Pression Vent Vitesse du vent Refales Humidité Pluie (taux horaire)
00:03 36.9 °F 36.1 °F 30.3 in NNW 5.4 mph 8.1 mph 97 % 0 in
00:08 36.9 °F 36.1 °F 30.3 in NNE 5.6 mph 8.1 mph 97 % 0 in
00:13 36.9 °F 36.1 °F 30.3 in NNE 6.5 mph 8.7 mph 97 % 0 in
00:18 36.9 °F 36.3 °F 30.3 in NE 6.3 mph 8.7 mph 98 % 0 in
00:23 36.9 °F 36.3 °F 30.3 in NNE 2.9 mph 7.8 mph 98 % 0 in
00:28 36.9 °F 36.3 °F 30.3 in NE 4.9 mph 7.8 mph 98 % 0 in
00:33 36.9 °F 36.3 °F 30.3 in NNE 4.3 mph 7.4 mph 98 % 0 in
00:38 36.9 °F 36.3 °F 30.3 in North 5.4 mph 7.4 mph 98 % 0 in
00:43 36.9 °F 36.3 °F 30.3 in NNE 3.1 mph 6 mph 98 % 0 in
00:48 36.9 °F 36.3 °F 30.3 in NNE 6 mph 7.6 mph 98 % 0 in
00:53 36.9 °F 36.3 °F 30.3 in NE 4.3 mph 7.6 mph 98 % 0 in
00:58 36.9 °F 36.3 °F 30.3 in NNE 3.4 mph 6.3 mph 98 % 0 in
01:03 36.9 °F 36.3 °F 30.3 in NNE 3.4 mph 6.3 mph 98 % 0 in
01:08 36.9 °F 36.3 °F 30.3 in North 3.8 mph 6.5 mph 98 % 0 in
01:13 36.9 °F 36.3 °F 30.3 in NE 4.9 mph 6.5 mph 98 % 0 in
01:18 36.9 °F 36.3 °F 30.3 in NE 6.3 mph 6.5 mph 98 % 0 in
01:23 36.9 °F 36.3 °F 30.3 in NE 4.9 mph 7.2 mph 98 % 0 in
01:28 36.9 °F 36.3 °F 30.3 in NE 6.3 mph 7.2 mph 98 % 0 in
01:33 36.9 °F 36.3 °F 30.3 in NE 5.6 mph 6.3 mph 98 % 0 in
01:38 36.7 °F 36.1 °F 30.3 in NE 6.3 mph 7.4 mph 98 % 0 in
01:43 36.7 °F 36.1 °F 30.3 in NE 6 mph 7.8 mph 98 % 0 in
01:48 36.3 °F 36 °F 30.3 in NE 5.8 mph 7.8 mph 98 % 0 in
01:53 36.3 °F 36 °F 30.3 in NE 6.7 mph 7.6 mph 98 % 0 in
01:58 36.3 °F 36 °F 30.3 in NE 5.8 mph 7.6 mph 98 % 0 in
02:03 36.1 °F 35.8 °F 30.3 in NE 6.5 mph 8.1 mph 98 % 0 in
02:08 36.1 °F 35.8 °F 30.3 in NE 5.8 mph 8.1 mph 98 % 0 in
02:13 36.1 °F 35.8 °F 30.3 in NNE 7.6 mph 8.1 mph 98 % 0 in
02:18 36.1 °F 35.8 °F 30.3 in NE 3.6 mph 7.6 mph 98 % 0 in
02:23 36.1 °F 35.8 °F 30.3 in NE 5.6 mph 8.7 mph 98 % 0 in
02:28 36.1 °F 35.4 °F 30.3 in NNE 3.4 mph 8.7 mph 98 % 0 in
02:33 36.1 °F 35.4 °F 30.3 in NNE 6.3 mph 8.1 mph 98 % 0 in
02:38 36.1 °F 35.4 °F 30.3 in NNE 5.8 mph 7.8 mph 98 % 0 in
02:43 36.1 °F 35.4 °F 30.3 in ENE 5.6 mph 7.8 mph 98 % 0 in
02:48 36.1 °F 35.4 °F 30.3 in ENE 5.4 mph 6.9 mph 98 % 0 in
02:53 36.1 °F 35.4 °F 30.3 in NNE 7.6 mph 7.6 mph 98 % 0 in
02:58 36.1 °F 35.4 °F 30.3 in NNE 6.7 mph 7.8 mph 98 % 0 in
03:03 36.1 °F 35.4 °F 30.3 in NNE 8.1 mph 8.1 mph 98 % 0 in
03:08 36 °F 35.4 °F 30.3 in NE 7.4 mph 8.1 mph 98 % 0 in
03:13 36 °F 35.4 °F 30.3 in NE 5.4 mph 8.1 mph 98 % 0 in
03:18 36 °F 35.4 °F 30.3 in NNE 4.3 mph 8.1 mph 98 % 0 in
03:23 36 °F 35.4 °F 30.3 in NE 7.4 mph 8.1 mph 98 % 0 in
03:28 35.8 °F 35.2 °F 30.3 in NNE 4.9 mph 8.1 mph 98 % 0 in
03:33 35.8 °F 35.2 °F 30.3 in North 5.6 mph 8.1 mph 98 % 0 in
03:38 35.8 °F 35.2 °F 30.3 in NE 6.3 mph 8.1 mph 98 % 0 in
03:43 35.8 °F 35.2 °F 30.3 in NNE 4 mph 7.6 mph 98 % 0 in
03:48 35.8 °F 35.2 °F 30.3 in NE 3.4 mph 7.6 mph 98 % 0 in
03:53 35.8 °F 35.2 °F 30.3 in NNE 5.6 mph 6.7 mph 98 % 0 in
03:58 35.8 °F 35.2 °F 30.3 in NE 4 mph 6.5 mph 98 % 0 in
04:03 35.8 °F 35.2 °F 30.3 in North 5.6 mph 7.6 mph 98 % 0 in
04:08 35.8 °F 35.2 °F 30.3 in NNE 6.3 mph 7.6 mph 98 % 0 in
04:13 35.8 °F 35.2 °F 30.3 in NE 6.5 mph 8.1 mph 98 % 0 in
04:18 35.4 °F 35.1 °F 30.3 in NE 7.4 mph 8.5 mph 98 % 0 in
04:23 35.4 °F 35.1 °F 30.3 in NE 5.4 mph 8.7 mph 98 % 0 in
04:28 35.4 °F 35.1 °F 30.3 in ENE 8.5 mph 8.7 mph 98 % 0 in
04:33 35.4 °F 35.1 °F 30.3 in NE 7.6 mph 8.7 mph 98 % 0 in
04:38 35.4 °F 35.1 °F 30.3 in NE 6.3 mph 8.7 mph 98 % 0 in
04:43 35.4 °F 35.1 °F 30.3 in NE 6 mph 8.7 mph 98 % 0 in
04:48 35.4 °F 34.9 °F 30.3 in NE 6.5 mph 8.7 mph 98 % 0 in
04:53 35.4 °F 35.1 °F 30.3 in NE 5.8 mph 8.7 mph 98 % 0 in
04:58 35.4 °F 34.9 °F 30.3 in NE 7.4 mph 10.1 mph 98 % 0 in
05:03 35.4 °F 34.9 °F 30.3 in NE 5.4 mph 10.1 mph 98 % 0 in
05:08 35.4 °F 34.9 °F 30.3 in NE 7.6 mph 10.1 mph 98 % 0 in
05:13 35.4 °F 34.9 °F 30.3 in NE 5.8 mph 8.5 mph 98 % 0 in
05:18 35.4 °F 34.9 °F 30.3 in NE 7.8 mph 8.5 mph 98 % 0 in
05:23 35.4 °F 34.9 °F 30.3 in NE 8.5 mph 8.5 mph 98 % 0 in
05:28 35.4 °F 34.9 °F 30.3 in NE 3.6 mph 8.5 mph 98 % 0 in
05:33 35.4 °F 34.9 °F 30.3 in NNE 7.6 mph 8.7 mph 98 % 0 in
05:38 35.2 °F 34.7 °F 30.3 in NE 7.4 mph 8.7 mph 98 % 0 in
05:43 35.2 °F 34.7 °F 30.3 in NE 6.3 mph 8.7 mph 98 % 0 in
05:48 35.2 °F 34.7 °F 30.3 in NE 5.4 mph 8.9 mph 98 % 0 in
05:53 35.2 °F 34.7 °F 30.3 in NE 5.8 mph 8.9 mph 98 % 0 in
05:58 35.2 °F 34.7 °F 30.3 in ENE 6.3 mph 8.7 mph 98 % 0 in
06:03 35.2 °F 34.7 °F 30.3 in NE 6 mph 8.7 mph 98 % 0 in
06:08 35.2 °F 34.7 °F 30.3 in NE 6.3 mph 9.6 mph 98 % 0 in
06:13 35.2 °F 34.7 °F 30.3 in NE 6 mph 9.6 mph 98 % 0 in
06:18 35.2 °F 34.7 °F 30.3 in NNE 6.3 mph 7.8 mph 98 % 0 in
06:23 35.2 °F 34.7 °F 30.3 in NE 5.6 mph 7.8 mph 98 % 0 in
06:28 35.1 °F 34.5 °F 30.3 in NE 5.4 mph 8.7 mph 98 % 0 in
06:33 35.1 °F 34.5 °F 30.3 in NNE 6.5 mph 8.7 mph 98 % 0 in
06:38 35.2 °F 34.7 °F 30.3 in NE 6.5 mph 8.5 mph 98 % 0 in
06:43 35.2 °F 34.7 °F 30.3 in NE 5.6 mph 7.8 mph 98 % 0 in
06:48 35.2 °F 34.7 °F 30.3 in NNE 6 mph 7.8 mph 98 % 0 in
06:53 35.2 °F 34.7 °F 30.3 in NE 5.8 mph 7.8 mph 98 % 0 in
06:58 35.1 °F 34.5 °F 30.3 in NE 6 mph 8.7 mph 98 % 0 in
07:03 35.2 °F 34.7 °F 30.3 in NE 4.3 mph 8.7 mph 98 % 0 in
07:08 35.2 °F 34.7 °F 30.3 in NNE 4.9 mph 7.6 mph 98 % 0 in
07:13 35.2 °F 34.7 °F 30.3 in NNE 3.8 mph 7.4 mph 98 % 0 in
07:18 35.2 °F 34.7 °F 30.3 in NE 5.4 mph 8.1 mph 98 % 0 in
07:23 35.2 °F 34.7 °F 30.3 in NNW 7.6 mph 8.1 mph 98 % 0 in
07:28 35.2 °F 34.7 °F 30.3 in NNE 6.3 mph 8.1 mph 98 % 0 in
07:33 35.2 °F 34.7 °F 30.3 in NE 6 mph 7.6 mph 98 % 0 in
07:38 35.2 °F 34.7 °F 30.3 in NE 4.9 mph 7.4 mph 98 % 0 in
07:43 35.2 °F 34.7 °F 30.3 in NNE 4.3 mph 7.4 mph 98 % 0 in
07:48 35.2 °F 34.7 °F 30.3 in NE 4 mph 8.1 mph 98 % 0 in
07:53 35.1 °F 34.5 °F 30.3 in NNE 4.7 mph 8.1 mph 98 % 0 in
07:58 35.1 °F 34.5 °F 30.3 in NE 6.5 mph 7.8 mph 98 % 0 in
08:03 35.2 °F 34.7 °F 30.3 in North 5.6 mph 7.6 mph 98 % 0 in
08:08 35.1 °F 34.5 °F 30.3 in NNE 7.6 mph 7.6 mph 98 % 0 in
08:13 35.1 °F 34.5 °F 30.3 in NE 5.6 mph 8.1 mph 98 % 0 in
08:18 35.1 °F 34.5 °F 30.3 in NE 4 mph 8.1 mph 98 % 0 in
08:22 35.2 °F 34.7 °F 30.3 in NE 4.9 mph 7.6 mph 98 % 0 in
08:27 35.1 °F 34.5 °F 30.3 in NNE 6 mph 8.1 mph 98 % 0 in
08:28 35.1 °F 34.5 °F 30.3 in NE 6.5 mph 8.1 mph 98 % 0 in
08:33 35.1 °F 34.5 °F 30.3 in NNE 6.5 mph 8.5 mph 98 % 0 in
08:38 35.1 °F 34.5 °F 30.3 in NE 6.3 mph 8.5 mph 98 % 0 in
08:43 35.1 °F 34.5 °F 30.3 in NE 7.6 mph 8.5 mph 98 % 0 in
08:48 35.1 °F 34.5 °F 30.3 in NE 5.6 mph 8.5 mph 98 % 0 in
08:53 35.1 °F 34.5 °F 30.3 in NE 5.8 mph 8.1 mph 98 % 0 in
08:58 35.1 °F 34.5 °F 30.3 in NE 6.3 mph 8.1 mph 98 % 0 in
09:03 35.1 °F 34.5 °F 30.3 in NE 6.3 mph 8.1 mph 98 % 0 in
09:08 35.1 °F 34.5 °F 30.3 in ENE 4.7 mph 7.6 mph 98 % 0 in
09:13 35.2 °F 34.7 °F 30.3 in NE 5.8 mph 7.6 mph 98 % 0 in
09:18 35.2 °F 34.7 °F 30.3 in NE 6 mph 10.1 mph 98 % 0 in
09:23 35.2 °F 34.7 °F 30.3 in NE 6.5 mph 10.1 mph 98 % 0 in
09:28 35.2 °F 34.7 °F 30.3 in NE 5.6 mph 7.8 mph 98 % 0 in
09:33 35.1 °F 34.5 °F 30.3 in NE 6.7 mph 8.7 mph 98 % 0 in
09:38 35.1 °F 34.5 °F 30.3 in NNE 3.8 mph 8.7 mph 98 % 0 in
09:43 35.1 °F 34.5 °F 30.3 in NE 6.3 mph 8.7 mph 98 % 0 in
09:48 35.1 °F 34.5 °F 30.3 in ENE 6.5 mph 8.7 mph 98 % 0 in
09:53 35.1 °F 34.5 °F 30.3 in ENE 5.4 mph 8.1 mph 98 % 0 in
09:58 35.1 °F 34.5 °F 30.3 in ENE 4.7 mph 7.8 mph 98 % 0 in
10:03 35.1 °F 34.5 °F 30.3 in NNE 7.4 mph 8.5 mph 98 % 0 in
10:08 35.1 °F 34.5 °F 30.3 in NNE 5.6 mph 8.5 mph 98 % 0 in
10:13 35.1 °F 34.5 °F 30.3 in NE 6.5 mph 8.1 mph 98 % 0 in
10:18 34.9 °F 34.3 °F 30.3 in NE 5.4 mph 9.2 mph 98 % 0 in
10:23 34.9 °F 34.3 °F 30.3 in NE 7.4 mph 9.2 mph 98 % 0 in
10:28 34.9 °F 34.3 °F 30.3 in NE 5.8 mph 8.7 mph 98 % 0 in
10:33 35.1 °F 34.5 °F 30.3 in NE 6.3 mph 8.7 mph 98 % 0 in
10:38 35.1 °F 34.5 °F 30.3 in NE 8.5 mph 8.7 mph 98 % 0 in
10:43 35.1 °F 34.5 °F 30.3 in NNE 7.6 mph 8.5 mph 98 % 0 in
10:48 35.1 °F 34.5 °F 30.3 in NE 7.6 mph 8.7 mph 98 % 0 in
10:53 35.2 °F 34.7 °F 30.3 in NE 4.9 mph 8.7 mph 98 % 0 in
10:58 35.4 °F 34.9 °F 30.3 in NE 5.8 mph 8.1 mph 98 % 0 in
11:03 35.4 °F 34.9 °F 30.3 in NE 7.8 mph 7.8 mph 98 % 0 in
11:08 35.4 °F 34.9 °F 30.3 in NE 6.5 mph 7.8 mph 98 % 0 in
11:13 35.4 °F 35.1 °F 30.3 in NNE 5.8 mph 8.1 mph 98 % 0 in
11:18 35.4 °F 35.1 °F 30.3 in ENE 7.4 mph 8.7 mph 98 % 0 in
11:23 35.8 °F 35.2 °F 30.3 in ENE 6.3 mph 8.7 mph 98 % 0 in
11:28 35.8 °F 35.2 °F 30.3 in NE 7.2 mph 8.7 mph 98 % 0 in
11:33 36 °F 35.4 °F 30.3 in East 6.5 mph 8.7 mph 98 % 0 in
11:38 36 °F 35.4 °F 30.3 in ENE 6 mph 8.5 mph 98 % 0 in
11:43 36 °F 35.4 °F 30.3 in NNE 5.6 mph 7.4 mph 98 % 0 in
11:48 36 °F 35.4 °F 30.3 in NE 3.8 mph 7.2 mph 98 % 0 in
11:53 36 °F 35.4 °F 30.3 in NE 5.6 mph 7.6 mph 98 % 0 in
11:58 36.1 °F 35.4 °F 30.3 in ENE 6.3 mph 7.6 mph 98 % 0 in
12:03 36.1 °F 35.4 °F 30.3 in NE 5.6 mph 7.2 mph 98 % 0 in
12:08 36.1 °F 35.8 °F 30.3 in NE 6 mph 6.5 mph 98 % 0 in
12:13 36.1 °F 35.8 °F 30.3 in NE 4.7 mph 6.5 mph 98 % 0 in
12:18 36.1 °F 35.8 °F 30.3 in NNE 6.3 mph 6.5 mph 98 % 0 in
12:23 36.1 °F 35.8 °F 30.3 in East 5.4 mph 6.7 mph 98 % 0 in
12:28 36.1 °F 35.8 °F 30.3 in ENE 6 mph 7.4 mph 98 % 0 in
12:33 36.1 °F 35.8 °F 30.3 in ENE 3.6 mph 7.4 mph 98 % 0 in
12:38 36.1 °F 35.8 °F 30.3 in ENE 3.6 mph 6.3 mph 98 % 0 in
12:43 36.1 °F 35.8 °F 30.3 in ENE 5.4 mph 6.3 mph 98 % 0 in
12:48 36.3 °F 36 °F 30.3 in ENE 5.8 mph 6.3 mph 98 % 0 in
12:53 36.3 °F 36 °F 30.3 in NE 6 mph 6.3 mph 98 % 0 in
12:58 36.7 °F 36.1 °F 30.3 in NE 4.3 mph 6.3 mph 98 % 0 in
13:03 36.7 °F 36.1 °F 30.3 in NE 5.6 mph 6.5 mph 98 % 0 in
13:08 36.7 °F 36.1 °F 30.3 in ENE 3.8 mph 6.7 mph 98 % 0 in
13:13 36.9 °F 36.3 °F 30.3 in NNE 6 mph 6.7 mph 98 % 0 in
13:18 36.9 °F 36.3 °F 30.3 in NE 4.5 mph 6 mph 98 % 0 in
13:23 36.9 °F 36.3 °F 30.3 in NE 3.6 mph 6 mph 98 % 0 in
13:28 36.9 °F 36.3 °F 30.3 in NNE 3.6 mph 6.3 mph 98 % 0 in
13:33 36.9 °F 36.3 °F 30.3 in NE 3.1 mph 6.5 mph 98 % 0 in
13:38 36.9 °F 36.3 °F 30.3 in NE 6 mph 7.6 mph 98 % 0 in
13:43 36.9 °F 36.3 °F 30.3 in NE 5.6 mph 7.6 mph 98 % 0 in
13:48 36.9 °F 36.3 °F 30.3 in NE 3.1 mph 6.9 mph 98 % 0 in
13:53 36.9 °F 36.3 °F 30.3 in NE 3.8 mph 6.9 mph 98 % 0 in
13:58 36.9 °F 36.3 °F 30.3 in NE 6.3 mph 6.5 mph 98 % 0 in
14:03 36.9 °F 36.3 °F 30.3 in NE 4 mph 7.4 mph 98 % 0 in
14:08 37 °F 36.7 °F 30.3 in ENE 4.3 mph 7.4 mph 98 % 0 in
14:13 37.2 °F 36.9 °F 30.3 in NNE 4.9 mph 7.2 mph 98 % 0 in
14:18 37.2 °F 36.9 °F 30.3 in ENE 4.3 mph 7.2 mph 98 % 0 in
14:23 37.2 °F 36.9 °F 30.3 in ENE 4.5 mph 6.3 mph 98 % 0 in
14:28 37.2 °F 36.9 °F 30.3 in NNE 6.5 mph 7.6 mph 98 % 0 in
14:33 37.2 °F 36.9 °F 30.3 in NE 5.4 mph 7.6 mph 98 % 0 in
14:38 37 °F 36.7 °F 30.3 in NE 4.3 mph 7.6 mph 98 % 0 in
14:43 37 °F 36.7 °F 30.3 in NE 7.6 mph 9.2 mph 98 % 0 in
14:48 36.9 °F 36.3 °F 30.3 in NE 7.8 mph 9.2 mph 98 % 0 in
14:53 36.9 °F 36.3 °F 30.3 in NE 4.3 mph 8.5 mph 98 % 0 in
14:58 36.9 °F 36.3 °F 30.3 in NE 6 mph 8.5 mph 98 % 0 in
15:03 36.9 °F 36.3 °F 30.3 in ENE 6 mph 9.4 mph 98 % 0 in
15:08 36.9 °F 36.3 °F 30.3 in NNE 5.6 mph 9.4 mph 98 % 0 in
15:13 36.9 °F 36.3 °F 30.3 in NE 5.6 mph 8.7 mph 98 % 0 in
15:18 36.9 °F 36.3 °F 30.3 in NE 5.8 mph 9.4 mph 98 % 0 in
15:23 36.9 °F 36.3 °F 30.3 in NE 4.3 mph 9.4 mph 98 % 0 in
15:28 36.9 °F 36.3 °F 30.3 in NE 6 mph 8.1 mph 98 % 0 in
15:33 36.9 °F 36.3 °F 30.3 in ENE 7.4 mph 8.1 mph 98 % 0 in
15:38 36.9 °F 36.3 °F 30.2 in NE 5.8 mph 7.6 mph 98 % 0 in
15:43 36.9 °F 36.3 °F 30.2 in NE 5.8 mph 7.6 mph 98 % 0 in
15:48 36.9 °F 36.3 °F 30.2 in ENE 5.8 mph 8.5 mph 98 % 0 in
15:53 36.9 °F 36.3 °F 30.2 in NNE 6.5 mph 8.7 mph 98 % 0 in
15:58 36.9 °F 36.3 °F 30.2 in East 4.3 mph 8.7 mph 98 % 0 in
16:03 36.9 °F 36.3 °F 30.2 in ENE 6.5 mph 8.5 mph 98 % 0 in
16:08 36.9 °F 36.3 °F 30.2 in NE 4 mph 8.1 mph 98 % 0 in
16:13 36.9 °F 36.3 °F 30.2 in ENE 6.5 mph 6.9 mph 98 % 0 in
16:18 36.9 °F 36.3 °F 30.2 in ENE 3.8 mph 7.2 mph 98 % 0 in
16:23 36.9 °F 36.3 °F 30.2 in ENE 4 mph 7.2 mph 98 % 0 in
16:28 37 °F 36.7 °F 30.2 in ENE 6.9 mph 7.2 mph 98 % 0 in
16:33 37 °F 36.7 °F 30.2 in NE 5.6 mph 8.7 mph 98 % 0 in
16:38 37 °F 36.7 °F 30.2 in East 5.4 mph 8.7 mph 98 % 0 in
16:43 37 °F 36.7 °F 30.2 in ENE 4 mph 7.6 mph 98 % 0 in
16:48 37 °F 36.7 °F 30.2 in NE 4.9 mph 7.6 mph 98 % 0 in
16:53 36.9 °F 36.3 °F 30.2 in East 3.4 mph 7.6 mph 98 % 0 in
16:58 36.9 °F 36.3 °F 30.2 in ENE 6.3 mph 6.7 mph 98 % 0 in
17:03 36.9 °F 36.3 °F 30.2 in ENE 4.3 mph 7.6 mph 98 % 0 in
17:08 36.9 °F 36.3 °F 30.2 in NE 4.3 mph 7.6 mph 98 % 0 in
17:13 36.9 °F 36.3 °F 30.2 in ESE 4.7 mph 8.1 mph 98 % 0 in
17:18 36.9 °F 36.3 °F 30.2 in NE 3.1 mph 8.1 mph 98 % 0 in
17:23 36.9 °F 36.3 °F 30.2 in ESE 3.8 mph 7.4 mph 98 % 0 in
17:28 36.9 °F 36.3 °F 30.2 in NE 5.4 mph 8.7 mph 98 % 0 in
17:33 36.7 °F 36.1 °F 30.2 in East 5.6 mph 8.7 mph 98 % 0 in
17:38 36.7 °F 36.1 °F 30.2 in ENE 5.8 mph 7.2 mph 98 % 0 in
17:43 36.7 °F 36.1 °F 30.2 in NE 4.9 mph 6.9 mph 98 % 0 in
17:48 36.7 °F 36.1 °F 30.2 in ENE 4.9 mph 6.3 mph 98 % 0 in
17:53 36.7 °F 36.1 °F 30.2 in East 5.4 mph 7.2 mph 98 % 0 in
17:58 36.3 °F 36 °F 30.2 in East 5.4 mph 7.2 mph 98 % 0 in
18:03 36.3 °F 36 °F 30.2 in ENE 5.6 mph 8.1 mph 98 % 0 in
18:08 36.3 °F 36 °F 30.2 in East 5.8 mph 8.1 mph 98 % 0 in
18:13 36.1 °F 35.8 °F 30.2 in East 4 mph 7.2 mph 98 % 0 in
18:18 36.1 °F 35.8 °F 30.2 in ENE 6.5 mph 7.6 mph 98 % 0 in
18:23 36.1 °F 35.8 °F 30.2 in ENE 3.4 mph 7.6 mph 98 % 0 in
18:28 36.1 °F 35.8 °F 30.2 in East 4.3 mph 6.9 mph 98 % 0 in
18:33 36.1 °F 35.8 °F 30.2 in East 4.9 mph 5.8 mph 98 % 0 in
18:38 36.1 °F 35.8 °F 30.2 in ENE 8.1 mph 8.1 mph 98 % 0 in
18:43 36.1 °F 35.4 °F 30.2 in ESE 7.4 mph 8.1 mph 98 % 0 in
18:48 36.1 °F 35.4 °F 30.2 in ENE 6 mph 8.5 mph 98 % 0 in
18:53 36 °F 35.4 °F 30.2 in ENE 2.7 mph 8.5 mph 98 % 0 in
18:58 36 °F 35.4 °F 30.2 in NE 4.9 mph 7.8 mph 98 % 0 in
19:03 35.8 °F 35.2 °F 30.2 in North 4.9 mph 7.6 mph 98 % 0 in
19:06 35.8 °F 35.2 °F 30.2 in East 4.3 mph 7.6 mph 98 % 0 in
19:11 35.8 °F 35.2 °F 30.2 in East 7.4 mph 8.7 mph 98 % 0 in
19:16 35.4 °F 35.1 °F 30.2 in East 6 mph 8.7 mph 98 % 0 in
19:21 35.4 °F 35.1 °F 30.2 in East 5.6 mph 8.1 mph 98 % 0 in
19:26 35.4 °F 34.9 °F 30.2 in East 4 mph 8.1 mph 98 % 0 in
19:31 35.4 °F 34.9 °F 30.2 in East 5.6 mph 6.5 mph 98 % 0 in
19:36 35.4 °F 34.9 °F 30.2 in East 4 mph 6.5 mph 98 % 0 in
19:41 35.4 °F 34.9 °F 30.2 in East 5.4 mph 6.5 mph 98 % 0 in
19:46 35.4 °F 34.9 °F 30.2 in ENE 5.8 mph 6.5 mph 98 % 0 in
19:51 35.4 °F 34.9 °F 30.2 in East 2.7 mph 6.5 mph 98 % 0 in
19:56 35.4 °F 34.9 °F 30.2 in East 4 mph 5.8 mph 98 % 0 in
20:01 35.2 °F 34.7 °F 30.2 in East 5.4 mph 7.2 mph 98 % 0 in
20:06 35.2 °F 34.7 °F 30.2 in ENE 4.3 mph 7.6 mph 98 % 0 in
20:11 35.2 °F 34.7 °F 30.2 in ESE 3.1 mph 7.6 mph 98 % 0 in
20:16 35.2 °F 34.7 °F 30.2 in ESE 4.9 mph 6 mph 98 % 0 in
20:21 35.2 °F 34.7 °F 30.2 in ENE 2.9 mph 5.8 mph 98 % 0 in
20:26 35.2 °F 34.7 °F 30.2 in ENE 4 mph 6 mph 98 % 0 in
20:31 35.4 °F 34.9 °F 30.2 in East 4 mph 6 mph 98 % 0 in
20:35 35.4 °F 34.9 °F 30.2 in NE 6.3 mph 6.5 mph 98 % 0 in
20:41 35.2 °F 34.7 °F 30.2 in ENE 6.3 mph 7.8 mph 98 % 0 in
20:46 35.2 °F 34.7 °F 30.2 in NNE 6.5 mph 10.3 mph 98 % 0 in
20:51 35.4 °F 34.9 °F 30.2 in East 4.9 mph 10.3 mph 98 % 0 in
20:55 35.4 °F 34.9 °F 30.2 in ENE 6.3 mph 8.1 mph 98 % 0 in
21:00 35.4 °F 34.9 °F 30.2 in ENE 5.8 mph 8.7 mph 98 % 0 in
21:05 35.4 °F 34.9 °F 30.2 in ENE 2.9 mph 8.7 mph 98 % 0 in
21:11 35.4 °F 34.9 °F 30.2 in ENE 4 mph 6.5 mph 98 % 0 in
21:15 35.4 °F 34.9 °F 30.2 in NE 5.6 mph 8.5 mph 98 % 0 in
21:21 35.4 °F 34.9 °F 30.2 in NE 5.4 mph 8.5 mph 98 % 0 in
21:25 35.4 °F 34.9 °F 30.2 in ENE 7.4 mph 8.7 mph 98 % 0 in
21:30 35.4 °F 34.9 °F 30.2 in ENE 2.9 mph 8.7 mph 98 % 0 in
21:35 35.4 °F 34.9 °F 30.2 in ENE 3.1 mph 7.4 mph 98 % 0 in
21:40 35.4 °F 34.9 °F 30.2 in NE 6.3 mph 6.9 mph 98 % 0 in
21:45 35.4 °F 34.5 °F 30.2 in ENE 4.9 mph 8.5 mph 97 % 0 in
21:50 35.4 °F 34.5 °F 30.2 in ENE 5.4 mph 8.5 mph 97 % 0 in
21:55 35.4 °F 34.5 °F 30.2 in NE 6 mph 8.1 mph 97 % 0 in
22:00 35.2 °F 34.3 °F 30.2 in NE 6.5 mph 8.1 mph 97 % 0 in
22:05 35.4 °F 34.5 °F 30.2 in ENE 6 mph 7.8 mph 97 % 0 in
22:10 35.4 °F 34.5 °F 30.2 in NE 5.8 mph 6.5 mph 97 % 0 in
22:15 35.4 °F 34.5 °F 30.2 in NE 5.6 mph 6.5 mph 97 % 0 in
22:20 35.4 °F 34.5 °F 30.2 in ENE 4.3 mph 6.5 mph 97 % 0 in
22:25 35.4 °F 34.5 °F 30.2 in East 4.9 mph 6 mph 97 % 0 in
22:27 35.4 °F 34.5 °F 30.2 in East 4.7 mph 6 mph 97 % 0 in
22:32 35.4 °F 34.5 °F 30.2 in ENE 4.3 mph 6.3 mph 97 % 0 in
22:37 35.4 °F 34.5 °F 30.2 in ENE 6.3 mph 6.3 mph 97 % 0 in
22:42 35.4 °F 34.5 °F 30.2 in ENE 3.8 mph 8.5 mph 97 % 0 in
22:47 35.4 °F 34.5 °F 30.2 in ENE 4 mph 8.5 mph 97 % 0 in
22:52 35.2 °F 34.3 °F 30.2 in ENE 3.4 mph 6 mph 97 % 0 in
22:57 35.1 °F 34.2 °F 30.2 in ENE 6.5 mph 8.7 mph 97 % 0 in
23:02 35.1 °F 34.2 °F 30.2 in East 6.3 mph 8.7 mph 97 % 0 in
23:07 35.1 °F 34.2 °F 30.2 in NE 3.8 mph 7.6 mph 97 % 0 in
23:12 34.9 °F 34.2 °F 30.2 in ENE 5.4 mph 8.1 mph 97 % 0 in
23:17 34.5 °F 33.6 °F 30.2 in ENE 5.4 mph 8.1 mph 97 % 0 in
23:22 34.5 °F 33.4 °F 30.2 in ENE 3.4 mph 6.5 mph 96 % 0 in
23:27 34.3 °F 33.3 °F 30.2 in ENE 6 mph 6.5 mph 96 % 0 in
23:32 34.2 °F 33.1 °F 30.2 in NE 6 mph 6.5 mph 96 % 0 in
23:37 34 °F 33.3 °F 30.2 in NE 5.4 mph 7.6 mph 97 % 0 in
23:42 34 °F 33.3 °F 30.2 in NE 3.4 mph 7.8 mph 97 % 0 in
23:47 33.8 °F 33.1 °F 30.2 in North 4.5 mph 7.8 mph 97 % 0 in
23:55 33.6 °F 32.7 °F 30.2 in NNE 0.9 mph 6.5 mph 97 % 0 in
Le Gheer Warneton
Courtoisie de Weather Underground - 2.25 mb

Mise a jour : 17-12-17 03:05:15
Généré par Cumulus 1.9.4 (1099)